| time (UTC) | temp C | wind direction | speed KPH | gust KPH | rain 1hr cm | rain 24hr cm | rain mn cm | humidity % | barometer mb |
| 20260901091515 | 9 | 0.0 | 0.0 | 0.00 | 0.41 | 0.00 | 85 | 1028.2 | |
| 20260901090517 | 9 | 23 | 1.6 | 3.2 | 0.00 | 0.41 | 0.00 | 87 | 1028.1 |
| 20260901085537 | 9 | 23 | 1.6 | 1.6 | 0.00 | 0.41 | 0.00 | 89 | 1028.3 |
| 20260901084517 | 9 | 0.0 | 1.6 | 0.00 | 0.41 | 0.00 | 89 | 1027.7 | |
| 20260901083517 | 9 | 0.0 | 1.6 | 0.00 | 0.41 | 0.00 | 89 | 1027.7 | |
| 20260901082517 | 9 | 0.0 | 3.2 | 0.00 | 0.41 | 0.00 | 89 | 1028.3 | |
| 20260901081517 | 9 | 23 | 1.6 | 3.2 | 0.00 | 0.41 | 0.00 | 88 | 1028.4 |
| 20260901080517 | 9 | 0.0 | 0.0 | 0.00 | 0.41 | 0.00 | 87 | 1028.4 | |
| 20260901075537 | 10 | 0.0 | 3.2 | 0.00 | 0.41 | 0.00 | 87 | 1028.4 | |
| 20260901074517 | 10 | 158 | 3.2 | 4.8 | 0.00 | 0.41 | 0.00 | 86 | 1029.2 |
| 20260901073517 | 10 | 135 | 1.6 | 3.2 | 0.00 | 0.41 | 0.00 | 86 | 1028.8 |
| 20260901072517 | 10 | 135 | 1.6 | 3.2 | 0.00 | 0.41 | 0.00 | 86 | 1028.7 |
| 20260901071517 | 10 | 0.0 | 1.6 | 0.00 | 0.41 | 0.00 | 85 | 1028.9 | |
| 20260901070517 | 10 | 113 | 1.6 | 3.2 | 0.00 | 0.41 | 0.00 | 85 | 1028.8 |
| 20260901065517 | 10 | 0.0 | 3.2 | 0.00 | 0.41 | 0.00 | 86 | 1028.8 | |
| 20260901064537 | 10 | 113 | 1.6 | 4.8 | 0.00 | 0.41 | 0.00 | 85 | 1028.9 |
| 20260901063517 | 10 | 0.0 | 3.2 | 0.00 | 0.41 | 0.00 | 83 | 1028.2 | |
| 20260901062517 | 10 | 135 | 1.6 | 3.2 | 0.00 | 0.41 | 0.00 | 84 | 1028.1 |
| 20260901061516 | 10 | 0.0 | 3.2 | 0.00 | 0.41 | 0.00 | 83 | 1028.2 | |
| 20260901060516 | 10 | 0.0 | 3.2 | 0.00 | 0.41 | 0.00 | 85 | 1028.2 | |
| 20260901055515 | 10 | 135 | 1.6 | 6.4 | 0.00 | 0.41 | 0.41 | 85 | 1028.4 |
| 20260901054516 | 10 | 158 | 1.6 | 3.2 | 0.00 | 0.41 | 0.41 | 86 | 1028.6 |
| 20260901053515 | 10 | 158 | 1.6 | 3.2 | 0.00 | 0.41 | 0.41 | 86 | 1027.8 |
| 20260901052536 | 9 | 0.0 | 3.2 | 0.00 | 0.41 | 0.41 | 87 | 1028.0 | |
| 20260901051515 | 9 | 203 | 1.6 | 4.8 | 0.00 | 0.41 | 0.41 | 87 | 1027.9 |
| 20260901050515 | 10 | 180 | 1.6 | 3.2 | 0.00 | 0.41 | 0.41 | 87 | 1028.2 |
| 20260901045515 | 9 | 158 | 1.6 | 3.2 | 0.00 | 0.41 | 0.41 | 87 | 1028.2 |
| 20260901044515 | 9 | 0.0 | 1.6 | 0.00 | 0.41 | 0.41 | 88 | 1028.2 | |
| 20260901043517 | 9 | 0.0 | 3.2 | 0.00 | 0.41 | 0.41 | 88 | 1027.6 | |
| 20260901042517 | 9 | 0.0 | 3.2 | 0.00 | 0.41 | 0.41 | 90 | 1027.7 | |
| 20260901041517 | 9 | 338 | 1.6 | 4.8 | 0.00 | 0.41 | 0.41 | 92 | 1027.6 |
| 20260901040517 | 9 | 0.0 | 3.2 | 0.00 | 0.41 | 0.41 | 92 | 1027.6 | |
| 20260901035517 | 9 | 45 | 1.6 | 6.4 | 0.03 | 0.41 | 0.41 | 92 | 1027.5 |
| 20260901034517 | 9 | 23 | 4.8 | 12.9 | 0.03 | 0.41 | 0.41 | 92 | 1027.4 |
| 20260901033537 | 9 | 23 | 6.4 | 14.5 | 0.05 | 0.41 | 0.41 | 92 | 1026.4 |
| 20260901032537 | 9 | 23 | 6.4 | 11.3 | 0.10 | 0.41 | 0.41 | 91 | 1026.6 |
| 20260901031517 | 9 | 0 | 3.2 | 6.4 | 0.15 | 0.41 | 0.41 | 91 | 1027.4 |
| 20260901030557 | 9 | 225 | 1.6 | 4.8 | 0.20 | 0.41 | 0.41 | 92 | 1027.3 |
| 20260901025537 | 9 | 248 | 3.2 | 6.4 | 0.25 | 0.38 | 0.38 | 93 | 1027.2 |
| 20260901024517 | 9 | 225 | 1.6 | 3.2 | 0.25 | 0.38 | 0.38 | 93 | 1027.3 |
| 20260901023517 | 9 | 225 | 4.8 | 8.0 | 0.23 | 0.36 | 0.36 | 93 | 1027.4 |
| 20260901022537 | 10 | 225 | 3.2 | 6.4 | 0.18 | 0.30 | 0.30 | 93 | 1027.8 |
| 20260901021517 | 10 | 225 | 3.2 | 8.0 | 0.13 | 0.25 | 0.25 | 92 | 1027.7 |
| 20260901020537 | 10 | 203 | 6.4 | 14.5 | 0.08 | 0.20 | 0.20 | 90 | 1027.0 |
| 20260901015517 | 10 | 180 | 11.3 | 19.3 | 0.00 | 0.13 | 0.13 | 86 | 1027.3 |
| 20260901014516 | 11 | 90 | 1.6 | 4.8 | 0.00 | 0.13 | 0.13 | 83 | 1026.6 |
| 20260901013516 | 11 | 45 | 3.2 | 6.4 | 0.00 | 0.13 | 0.13 | 84 | 1026.4 |
| 20260901012537 | 11 | 45 | 3.2 | 8.0 | 0.00 | 0.13 | 0.13 | 83 | 1026.5 |
| 20260901011516 | 11 | 23 | 4.8 | 9.7 | 0.00 | 0.13 | 0.13 | 83 | 1026.4 |
| 20260901010516 | 11 | 23 | 4.8 | 12.9 | 0.00 | 0.13 | 0.13 | 84 | 1026.4 |
| 20260901005516 | 11 | 45 | 3.2 | 6.4 | 0.08 | 0.13 | 0.13 | 84 | 1026.5 |
| 20260901004537 | 11 | 23 | 1.6 | 4.8 | 0.13 | 0.13 | 0.13 | 85 | 1026.8 |
| 20260901003516 | 11 | 338 | 1.6 | 6.4 | 0.13 | 0.13 | 0.13 | 84 | 1027.0 |
| 20260901002517 | 11 | 0 | 3.2 | 4.8 | 0.13 | 0.13 | 0.13 | 86 | 1027.1 |
| 20260901001517 | 11 | 0 | 1.6 | 4.8 | 0.13 | 0.13 | 0.13 | 84 | 1027.3 |
| 20260901000516 | 11 | 338 | 4.8 | 12.9 | 0.13 | 0.13 | 0.13 | 81 | 1026.8 |
| 20260831235516 | 12 | 225 | 6.4 | 12.9 | 0.05 | 0.05 | 0.05 | 78 | 1027.8 |
| 20260831234516 | 13 | 270 | 8.0 | 19.3 | 0.00 | 0.00 | 0.00 | 68 | 1027.6 |
| 20260831233536 | 15 | 270 | 6.4 | 16.1 | 0.00 | 0.00 | 0.00 | 58 | 1028.8 |
| 20260831232516 | 16 | 23 | 1.6 | 4.8 | 0.00 | 0.00 | 0.00 | 52 | 1028.9 |
| 20260831231536 | 17 | 23 | 1.6 | 4.8 | 0.00 | 0.00 | 0.00 | 51 | 1028.7 |
| 20260831230537 | 17 | 23 | 1.6 | 4.8 | 0.00 | 0.00 | 0.00 | 50 | 1028.7 |
| 20260831225516 | 17 | 0.0 | 3.2 | 0.00 | 0.00 | 0.00 | 50 | 1029.0 | |
| 20260831224516 | 17 | 0.0 | 3.2 | 0.00 | 0.00 | 0.00 | 50 | 1029.1 | |
| 20260831223516 | 17 | 90 | 1.6 | 4.8 | 0.00 | 0.00 | 0.00 | 49 | 1029.1 |
| 20260831222516 | 17 | 68 | 3.2 | 8.0 | 0.00 | 0.00 | 0.00 | 48 | 1029.1 |
| 20260831221516 | 17 | 23 | 1.6 | 6.4 | 0.00 | 0.00 | 0.00 | 47 | 1029.1 |
| 20260831220536 | 17 | 23 | 1.6 | 9.7 | 0.00 | 0.00 | 0.00 | 49 | 1029.2 |
| 20260831215516 | 17 | 0 | 3.2 | 9.7 | 0.00 | 0.00 | 0.00 | 46 | 1029.1 |
| 20260831214516 | 17 | 315 | 3.2 | 6.4 | 0.00 | 0.00 | 0.00 | 45 | 1029.8 |
| 20260831213516 | 18 | 90 | 1.6 | 9.7 | 0.00 | 0.00 | 0.00 | 46 | 1030.0 |
| 20260831212536 | 17 | 158 | 1.6 | 9.7 | 0.00 | 0.00 | 0.00 | 47 | 1029.9 |
| 20260831211536 | 17 | 113 | 1.6 | 8.0 | 0.00 | 0.00 | 0.00 | 46 | 1030.0 |
| 20260831210516 | 18 | 158 | 4.8 | 16.1 | 0.00 | 0.00 | 0.00 | 45 | 1030.2 |
| 20260831205516 | 18 | 90 | 3.2 | 14.5 | 0.00 | 0.00 | 0.00 | 46 | 1030.9 |
| 20260831204516 | 18 | 113 | 8.0 | 22.5 | 0.00 | 0.00 | 0.00 | 45 | 1030.2 |
| 20260831203536 | 18 | 113 | 6.4 | 17.7 | 0.00 | 0.00 | 0.00 | 45 | 1030.3 |
| 20260831202516 | 17 | 158 | 6.4 | 17.7 | 0.00 | 0.00 | 0.00 | 43 | 1030.6 |
| 20260831201516 | 18 | 158 | 6.4 | 12.9 | 0.00 | 0.00 | 0.00 | 44 | 1030.7 |
| 20260831200516 | 18 | 113 | 11.3 | 19.3 | 0.00 | 0.10 | 0.00 | 41 | 1031.4 |
| 20260831195516 | 20 | 180 | 6.4 | 14.5 | 0.00 | 0.18 | 0.00 | 39 | 1032.2 |
| 20260831194516 | 19 | 0.0 | 3.2 | 0.00 | 0.20 | 0.00 | 38 | 1031.7 | |
| 20260831193516 | 18 | 158 | 6.4 | 19.3 | 0.00 | 0.20 | 0.00 | 39 | 1031.1 |
| 20260831192516 | 18 | 180 | 3.2 | 12.9 | 0.00 | 0.20 | 0.00 | 39 | 1031.2 |
| 20260831191515 | 18 | 180 | 6.4 | 16.1 | 0.00 | 0.20 | 0.00 | 40 | 1030.8 |
| 20260831190515 | 18 | 113 | 3.2 | 14.5 | 0.00 | 0.20 | 0.00 | 41 | 1031.6 |
| 20260831185536 | 18 | 90 | 1.6 | 6.4 | 0.00 | 0.20 | 0.00 | 41 | 1031.7 |
| 20260831184536 | 18 | 158 | 1.6 | 11.3 | 0.00 | 0.20 | 0.00 | 39 | 1031.6 |
| 20260831183516 | 18 | 113 | 1.6 | 8.0 | 0.00 | 0.20 | 0.00 | 39 | 1031.8 |
| 20260831182516 | 17 | 113 | 1.6 | 4.8 | 0.00 | 0.20 | 0.00 | 41 | 1031.2 |
| 20260831181515 | 17 | 158 | 4.8 | 11.3 | 0.00 | 0.20 | 0.00 | 42 | 1031.2 |
| 20260831180556 | 17 | 135 | 3.2 | 9.7 | 0.00 | 0.20 | 0.00 | 43 | 1031.3 |
| 20260831175515 | 17 | 135 | 3.2 | 12.9 | 0.00 | 0.20 | 0.00 | 41 | 1031.3 |
| 20260831174515 | 17 | 113 | 1.6 | 4.8 | 0.00 | 0.20 | 0.00 | 45 | 1031.4 |
| 20260831173535 | 17 | 113 | 3.2 | 11.3 | 0.00 | 0.20 | 0.00 | 42 | 1031.3 |
| 20260831172515 | 17 | 225 | 3.2 | 8.0 | 0.00 | 0.20 | 0.00 | 43 | 1031.4 |
| 20260831171515 | 16 | 113 | 1.6 | 6.4 | 0.00 | 0.20 | 0.00 | 42 | 1030.8 |
| 20260831170515 | 16 | 225 | 3.2 | 11.3 | 0.00 | 0.20 | 0.00 | 41 | 1031.3 |
| 20260831165515 | 16 | 338 | 3.2 | 6.4 | 0.00 | 0.20 | 0.00 | 44 | 1031.4 |
| 20260831164555 | 16 | 248 | 1.6 | 4.8 | 0.00 | 0.20 | 0.00 | 44 | 1031.2 |
| 20260831163535 | 16 | 180 | 3.2 | 8.0 | 0.00 | 0.20 | 0.00 | 43 | 1031.7 |
| 20260831162517 | 16 | 225 | 3.2 | 6.4 | 0.00 | 0.20 | 0.00 | 45 | 1031.8 |
| 20260831161517 | 15 | 203 | 4.8 | 11.3 | 0.00 | 0.20 | 0.00 | 47 | 1031.1 |
| 20260831160517 | 15 | 158 | 3.2 | 9.7 | 0.00 | 0.20 | 0.00 | 49 | 1030.9 |
| 20260831155517 | 15 | 180 | 3.2 | 6.4 | 0.00 | 0.20 | 0.00 | 48 | 1030.9 |
| 20260831154517 | 15 | 225 | 1.6 | 4.8 | 0.00 | 0.20 | 0.00 | 50 | 1031.0 |
| 20260831153517 | 15 | 225 | 1.6 | 3.2 | 0.00 | 0.20 | 0.00 | 48 | 1031.0 |
| 20260831152517 | 15 | 158 | 1.6 | 4.8 | 0.00 | 0.20 | 0.00 | 50 | 1030.9 |
| 20260831151517 | 14 | 0.0 | 1.6 | 0.00 | 0.20 | 0.00 | 54 | 1030.6 | |
| 20260831150517 | 13 | 0.0 | 3.2 | 0.00 | 0.20 | 0.00 | 52 | 1030.5 | |
| 20260831145517 | 13 | 0.0 | 0.0 | 0.00 | 0.20 | 0.00 | 52 | 1030.6 | |
| 20260831144517 | 13 | 0.0 | 1.6 | 0.00 | 0.20 | 0.00 | 53 | 1030.0 | |
| 20260831143517 | 13 | 203 | 1.6 | 3.2 | 0.00 | 0.20 | 0.00 | 52 | 1030.6 |
| 20260831142517 | 13 | 225 | 1.6 | 3.2 | 0.00 | 0.20 | 0.00 | 53 | 1030.5 |
| 20260831141517 | 13 | 0.0 | 3.2 | 0.00 | 0.20 | 0.00 | 52 | 1030.5 | |
| 20260831140517 | 13 | 0.0 | 0.0 | 0.00 | 0.20 | 0.00 | 52 | 1030.3 | |
| 20260831135637 | 12 | 158 | 1.6 | 3.2 | 0.00 | 0.20 | 0.00 | 52 | 1030.2 |
| 20260831134517 | 12 | 0.0 | 3.2 | 0.00 | 0.20 | 0.00 | 53 | 1030.0 | |
| 20260831133517 | 12 | 0.0 | 3.2 | 0.00 | 0.20 | 0.00 | 53 | 1029.8 | |
| 20260831132516 | 12 | 315 | 1.6 | 3.2 | 0.00 | 0.20 | 0.00 | 54 | 1029.9 |
| 20260831131516 | 12 | 0.0 | 0.0 | 0.00 | 0.20 | 0.00 | 54 | 1029.8 | |
| 20260831130517 | 12 | 0.0 | 0.0 | 0.00 | 0.20 | 0.00 | 54 | 1029.8 | |
| 20260831125517 | 12 | 0.0 | 0.0 | 0.00 | 0.20 | 0.00 | 54 | 1029.7 | |
| 20260831124518 | 12 | 0.0 | 1.6 | 0.00 | 0.20 | 0.00 | 54 | 1029.5 | |
| 20260831123517 | 12 | 0.0 | 0.0 | 0.00 | 0.20 | 0.00 | 54 | 1029.9 | |
| 20260831122536 | 12 | 0.0 | 1.6 | 0.00 | 0.20 | 0.00 | 54 | 1029.8 | |
| 20260831121537 | 12 | 0.0 | 0.0 | 0.00 | 0.20 | 0.00 | 54 | 1029.7 | |
| 20260831120517 | 12 | 180 | 1.6 | 3.2 | 0.00 | 0.20 | 0.00 | 54 | 1029.7 |
| 20260831115516 | 11 | 0.0 | 3.2 | 0.00 | 0.20 | 0.00 | 56 | 1029.4 | |
| 20260831114516 | 11 | 90 | 1.6 | 3.2 | 0.00 | 0.20 | 0.00 | 56 | 1029.3 |
| 20260831113516 | 11 | 0 | 1.6 | 1.6 | 0.00 | 0.20 | 0.00 | 57 | 1029.5 |
| 20260831112516 | 11 | 0.0 | 1.6 | 0.00 | 0.20 | 0.00 | 57 | 1029.4 | |
| 20260831111517 | 11 | 0.0 | 1.6 | 0.00 | 0.20 | 0.00 | 58 | 1029.2 | |
| 20260831110516 | 11 | 68 | 1.6 | 1.6 | 0.00 | 0.20 | 0.00 | 59 | 1028.6 |
| 20260831105516 | 11 | 68 | 3.2 | 3.2 | 0.00 | 0.20 | 0.00 | 60 | 1028.7 |
| 20260831104517 | 11 | 68 | 1.6 | 3.2 | 0.00 | 0.20 | 0.00 | 60 | 1028.6 |
| 20260831103516 | 11 | 113 | 1.6 | 4.8 | 0.00 | 0.20 | 0.00 | 61 | 1027.2 |
| 20260831102516 | 11 | 90 | 1.6 | 3.2 | 0.00 | 0.20 | 0.00 | 61 | 1026.8 |
| 20260831101516 | 11 | 158 | 1.6 | 4.8 | 0.00 | 0.20 | 0.00 | 60 | 1026.6 |
| 20260831100556 | 11 | 90 | 1.6 | 3.2 | 0.00 | 0.20 | 0.00 | 61 | 1026.1 |
| 20260831095516 | 10 | 113 | 1.6 | 3.2 | 0.00 | 0.20 | 0.00 | 61 | 1025.8 |
| 20260831094516 | 11 | 0.0 | 1.6 | 0.00 | 0.20 | 0.00 | 61 | 1025.8 | |
| 20260831093556 | 11 | 180 | 1.6 | 4.8 | 0.00 | 0.20 | 0.00 | 61 | 1024.6 |
| 20260831092516 | 10 | 68 | 1.6 | 4.8 | 0.00 | 0.20 | 0.00 | 61 | 1024.4 |